[[{"header":{"parameterUnit":"m.s-1","parameterCategory":1,"la1":30.2991,"la2":30.254,"lo1":-89.0895,"lo2":-89.0444,"dy":0.0017,"dx":0.0017,"nx":28,"ny":28,"refTime":"2024-12-13T03:00:00:Z","depth":0,"parameterNumber":2,"parameterNumberName":"U-component_of_WINDS"},"data":[0,0,0,0,0,0,0,0,0,0,0,0,0,0,0,0,0,0,0,0,0,0,0,0,0,0,0,0,0,0,0,0,0,0,0,0,0,0,0,0,0,0,0,0,0,0,0,0,0,0,0,0,0,0,0,0,0,0,-6.928,-6.928,0,-6.9341,-6.9342,-6.9343,-6.9174,-6.9169,-6.9164,-6.9159,-6.9225,-6.9232,-6.9238,0,0,0,0,0,0,0,0,0,0,0,0,0,-6.902,-6.9026,-6.928,-6.9281,-6.9281,-6.9341,-6.9342,-6.9343,-6.9175,-6.9169,-6.9162,-6.9156,-6.9223,-6.9231,-6.9239,0,0,0,0,0,0,0,0,0,0,0,0,0,-6.9113,-6.9028,-6.928,-6.9205,-6.9199,-6.9341,-6.9342,-6.9343,-6.9176,-6.9168,-6.9161,-6.9153,-6.9221,-6.923,-6.924,-6.9459,0,0,-6.9271,-6.9275,0,0,0,0,0,0,0,0,-6.9108,-6.9122,-6.9215,-6.921,-6.9203,-6.9242,-6.9275,-6.9382,-6.9178,-6.9185,-6.9158,-6.9149,-6.9237,-6.9245,-6.9274,-6.9462,-6.9465,-6.9271,-6.9278,-6.9282,-6.9285,0,0,0,0,0,0,0,-6.9101,-6.9119,-6.9304,-6.9216,-6.921,-6.9169,-6.9173,-6.9294,-6.9255,-6.9184,-6.9172,-6.9181,-6.9233,-6.9265,-6.9275,-6.9466,-6.9271,-6.928,-6.9286,-6.929,-6.9836,-6.9844,0,0,0,0,0,0,-6.9104,-6.9115,-6.9302,-6.9306,-6.9135,-6.918,-6.9185,-6.9238,-6.9253,-6.9247,-6.9188,-6.9173,-6.9252,-6.9263,-6.9276,-6.9533,-6.9282,-6.9291,-6.9297,-6.9827,-6.9838,-6.9847,0,0,0,0,0,0,-6.9099,-6.9123,-6.93,-6.9207,-6.9226,-6.9193,-6.9253,-6.9243,-6.9275,-6.9256,-6.9248,-6.9228,-6.9246,-6.9262,-6.9414,-6.9533,-6.9296,-6.9305,-6.9817,-6.983,-6.9842,-7.0049,0,0,0,0,0,0,-6.9093,-6.9122,-6.9204,-6.921,-6.9232,-6.9436,-6.9261,-6.925,-6.9292,-6.9274,-6.9291,-6.9287,-6.9241,-6.94,-6.9424,-6.9542,-6.9312,-6.9806,-6.9823,-6.9838,-7.0031,-7.0067,-7.0098,0,0,0,0,0,-6.9084,-6.9261,-6.9209,-6.9232,-6.9334,-6.9443,-6.9456,-6.9399,-6.9302,-6.9385,-6.9373,-6.9286,-6.9516,-6.9417,-6.9443,-6.9566,-6.9799,-6.9818,-6.9837,-7.0016,-7.006,-7.0097,0,0,0,0,0,0,-6.927,-6.926,-6.9203,-6.9386,-6.9417,-6.9415,-6.9517,-6.9447,-6.9507,-6.9487,-6.9415,-6.942,-6.9586,-6.9591,-6.9481,-6.9778,-6.9641,-6.9666,-6.9769,-6.981,-6.9843,-6.9838,-6.9321,0,0,0,0,0,-6.9333,-6.9422,-6.9408,-6.9572,-6.959,-6.9552,-6.9597,-6.955,-6.958,-6.9592,-6.9591,-6.9624,-6.9703,-6.9757,-6.9829,-7.0031,-7.0033,-7.0129,-7.0162,-7.0189,-7.0212,-7.0319,-7.0361,-6.991,-6.9909,-6.9909,0,0,-6.9463,-6.9468,-6.9529,-6.9609,-6.9627,-6.9722,-6.9563,-6.967,-6.974,-6.9609,-6.9751,-6.9752,-6.9784,-6.9962,-7.0041,-6.9972,-7.0337,-7.0214,-7.0236,-7.0243,-7.0343,-7.0386,-7.0424,-6.9923,-6.992,-6.9918,0,0,-6.9748,-6.9761,-6.9898,-6.9919,-6.9948,-6.9922,-6.9955,-6.9964,-6.9959,-7.0101,-7.0004,-7.0087,-7.0225,-7.0251,-7.0283,-7.0579,-7.0501,-7.0604,-7.0778,-7.0883,-7.0919,-7.095,-7.1055,-7.1094,-7.0627,-7.0628,-7.0628,0,-6.9906,-7.0043,-6.9978,-7.0091,-7.0129,-7.0014,-7.0153,-7.0177,-7.023,-7.0259,-7.0181,-7.0351,-7.0365,-7.0547,-7.0619,-7.0649,-7.0685,-7.0602,-7.0919,-7.095,-7.0978,-7.1077,-7.1117,-7.064,-7.0638,-7.0637,-7.0636,0,-7.0236,-7.0333,-7.0441,-7.0493,-7.0543,-7.0669,-7.0623,-7.0683,-7.0632,-7.0614,-7.0761,-7.0773,-7.0845,-7.0885,-7.0837,-7.1061,-7.1017,-7.0931,-7.0791,-7.1034,-7.1126,-7.1164,-7.0657,-7.0653,-7.0649,-7.0646,0,0,-7.064,-7.0653,-7.0694,-7.0716,-7.074,-7.0814,-7.0935,-7.1005,-7.1057,-7.1097,-7.1197,-7.1317,-7.1236,-7.1273,-7.1227,-7.1319,-7.1552,-7.1221,-7.122,-7.1282,-7.18,-7.1865,-7.191,-7.1501,-7.1508,-7.1514,-7.1797,0,-7.092,-7.1126,-7.1071,-7.1277,-7.1365,-7.1257,-7.1363,-7.139,-7.1376,-7.1451,-7.1436,-7.1522,-7.1409,-7.143,-7.1517,-7.1506,-7.1656,-7.1485,-7.1594,-7.1599,-7.1589,-7.1958,-7.2027,-7.2294,-7.1833,-7.1839,-7.1843,0,-7.1274,-7.1327,-7.1542,-7.1551,-7.1586,-7.1682,-7.174,-7.1813,-7.1841,-7.1825,-7.1866,-7.1801,-7.1921,-7.1782,-7.1946,-7.1831,-7.1873,-7.1875,-7.1883,-7.1891,-7.1735,-7.1976,-7.2377,-7.2417,-7.19,-7.1895,-7.1891,0,-7.1547,-7.1672,-7.1815,-7.1838,-7.1852,-7.1922,-7.1932,-7.1952,-7.1997,-7.205,-7.2078,-7.2145,-7.2181,-7.2235,-7.219,-7.2093,-7.2362,-7.2219,-7.2352,-7.2354,-7.2414,-7.241,-7.2828,-7.2442,-7.2442,-7.2441,-7.244,0,-7.1865,-7.2001,-7.1938,-7.2027,-7.2175,-7.2111,-7.2261,-7.2258,-7.2277,-7.2364,-7.2276,-7.2359,-7.2295,-7.2374,-7.234,-7.2482,-7.2499,-7.249,-7.2479,-7.2498,-7.2499,-7.2523,-7.2503,-7.2451,-7.2449,-7.2447,-7.2445,0,-7.2194,-7.2157,-7.2307,-7.2309,-7.2312,-7.2422,-7.2423,-7.2506,-7.2486,-7.2597,-7.262,-7.2589,-7.2677,-7.2638,-7.2731,-7.2708,-7.289,-7.2855,-7.288,-7.2871,-7.3006,-7.2994,-7.3453,-7.351,-7.3089,-7.3093,-7.3097,0,-7.2399,-7.25,-7.2512,-7.2564,-7.2579,-7.2663,-7.2708,-7.265,-7.2701,-7.2741,-7.282,-7.2899,-7.296,-7.3106,-7.3093,-7.3163,-7.3129,-7.3285,-7.3139,-7.3154,-7.3131,-7.3125,-7.3134,-7.3314,-7.3319,-7.3323,-7.3326,0,-7.2767,-7.2744,-7.2812,-7.2875,-7.2932,-7.2979,-7.3018,-7.3066,-7.3008,-7.3071,-7.3159,-7.3206,-7.33,-7.3381,-7.3443,-7.3453,-7.3382,-7.3373,-7.3407,-7.3426,-7.3436,-7.3432,-7.2959,-7.3362,-7.3359,-7.3356,-7.3354,-7.3353,-7.3039,-7.3124,-7.3146,-7.3225,-7.3248,-7.3288,-7.3365,-7.3355,-7.3427,-7.3498,-7.346,-7.3563,-7.3589,-7.3664,-7.3685,-7.3765,-7.3704,-7.3754,-7.3766,-7.378,-7.3797,-7.3425,-7.3776,-7.3775,-7.3774,-7.3773,-7.3773,0,-7.3401,-7.341,-7.3484,-7.3541,-7.3604,-7.353,-7.357,-7.3627,-7.3719,-7.3749,-7.381,-7.3912,-7.399,-7.3983,-7.4055,-7.412,-7.4089,-7.4141,-7.4135,-7.4139,-7.3848,-7.3811,-7.4165,-7.4165,-7.4165,-7.4165,-7.4165,-7.4165,-7.3597,-7.3737,-7.3717,-7.3868,-7.3875,-7.3974,-7.4004,-7.4039,-7.4063,-7.418,-7.4244,-7.4238,-7.4254,-7.4326,-7.4395,-7.439,-7.4421,-7.4485,-7.4469,-7.4198,-7.4159,-7.4122,-7.4086,-7.4493,-7.4493,-7.4753,-7.4755,-7.4757]},{"header":{"parameterUnit":"m.s-1","parameterCategory":1,"la1":30.2991,"la2":30.254,"lo1":-89.0895,"lo2":-89.0444,"dy":0.0017,"dx":0.0017,"nx":28,"ny":28,"refTime":"2024-12-13T03:00:00:Z","depth":0,"parameterNumber":3,"parameterNumberName":"V-component_of_WINDS"},"data":[0,0,0,0,0,0,0,0,0,0,0,0,0,0,0,0,0,0,0,0,0,0,0,0,0,0,0,0,0,0,0,0,0,0,0,0,0,0,0,0,0,0,0,0,0,0,0,0,0,0,0,0,0,0,0,0,0,0,-1.3187,-1.3187,0,-1.3134,-1.3133,-1.3132,-1.3083,-1.3082,-1.3082,-1.3081,-1.3026,-1.3025,-1.3024,0,0,0,0,0,0,0,0,0,0,0,0,0,-1.3246,-1.3245,-1.3188,-1.3187,-1.3186,-1.3134,-1.3133,-1.3132,-1.3083,-1.3082,-1.3082,-1.3081,-1.3026,-1.3025,-1.3024,0,0,0,0,0,0,0,0,0,0,0,0,0,-1.3209,-1.3245,-1.3188,-1.3155,-1.3152,-1.3134,-1.3133,-1.3132,-1.3083,-1.3082,-1.3081,-1.3081,-1.3027,-1.3025,-1.3024,-1.3033,0,0,-1.302,-1.3019,0,0,0,0,0,0,0,0,-1.3212,-1.3207,-1.3161,-1.3157,-1.3154,-1.3114,-1.3133,-1.3099,-1.3083,-1.3109,-1.3081,-1.308,-1.3056,-1.3052,-1.3044,-1.3031,-1.3028,-1.302,-1.3019,-1.3018,-1.3018,0,0,0,0,0,0,0,-1.3214,-1.3209,-1.3166,-1.316,-1.3156,-1.3143,-1.3137,-1.3127,-1.3088,-1.3107,-1.3103,-1.3098,-1.3054,-1.3045,-1.3042,-1.3028,-1.302,-1.3018,-1.3018,-1.3017,-1.3017,-1.3018,0,0,0,0,0,0,-1.3222,-1.3212,-1.3168,-1.3165,-1.3181,-1.3143,-1.3136,-1.3128,-1.3088,-1.3081,-1.3098,-1.3095,-1.3048,-1.3044,-1.304,-1.3047,-1.3018,-1.3017,-1.3016,-1.3016,-1.3017,-1.3018,0,0,0,0,0,0,-1.3223,-1.3218,-1.317,-1.3187,-1.318,-1.3143,-1.3134,-1.3127,-1.3119,-1.3082,-1.3075,-1.3097,-1.3047,-1.3042,-1.3035,-1.3045,-1.3016,-1.3015,-1.3015,-1.3017,-1.3018,-1.3062,0,0,0,0,0,0,-1.3225,-1.3219,-1.3223,-1.3188,-1.3179,-1.3166,-1.3135,-1.3127,-1.3116,-1.3112,-1.3078,-1.3072,-1.3046,-1.3037,-1.3034,-1.3042,-1.3014,-1.3014,-1.3016,-1.3017,-1.306,-1.3065,-1.3069,0,0,0,0,0,-1.3227,-1.3238,-1.3223,-1.3218,-1.3183,-1.3167,-1.3162,-1.3132,-1.3117,-1.312,-1.3096,-1.3073,-1.3044,-1.3037,-1.3032,-1.3041,-1.3014,-1.3016,-1.3017,-1.3058,-1.3064,-1.3069,0,0,0,0,0,0,-1.3276,-1.3233,-1.3216,-1.3216,-1.3195,-1.3159,-1.3162,-1.314,-1.3124,-1.312,-1.3084,-1.3076,-1.3073,-1.3056,-1.3049,-1.3047,-1.3026,-1.3027,-1.3058,-1.3063,-1.3068,-1.3072,-1.3013,0,0,0,0,0,-1.3286,-1.3277,-1.324,-1.3243,-1.3234,-1.32,-1.3191,-1.317,-1.3147,-1.3139,-1.3114,-1.3093,-1.3079,-1.307,-1.3055,-1.3057,-1.3048,-1.306,-1.3065,-1.3069,-1.307,-1.3068,-1.3073,-1.3024,-1.3024,-1.3024,0,0,-1.3308,-1.3284,-1.328,-1.3252,-1.3234,-1.3224,-1.3193,-1.3185,-1.3177,-1.3137,-1.3128,-1.311,-1.3084,-1.308,-1.3078,-1.3066,-1.3082,-1.3072,-1.3075,-1.3074,-1.307,-1.3075,-1.3079,-1.3026,-1.3025,-1.3025,0,0,-1.3343,-1.3324,-1.3323,-1.3305,-1.3278,-1.3255,-1.3255,-1.3221,-1.3207,-1.3198,-1.3167,-1.3157,-1.3135,-1.3116,-1.3104,-1.313,-1.3108,-1.3127,-1.3151,-1.3149,-1.3153,-1.3156,-1.3164,-1.3167,-1.3128,-1.3128,-1.3128,0,-1.3373,-1.3358,-1.3326,-1.3319,-1.3307,-1.327,-1.3269,-1.3253,-1.3222,-1.3215,-1.3202,-1.3171,-1.3151,-1.3142,-1.3148,-1.314,-1.3138,-1.313,-1.3155,-1.3158,-1.316,-1.3167,-1.3171,-1.313,-1.313,-1.313,-1.313,0,-1.3396,-1.3386,-1.3389,-1.3359,-1.3348,-1.3344,-1.331,-1.3302,-1.3281,-1.3259,-1.3249,-1.3224,-1.3202,-1.3199,-1.3179,-1.3187,-1.318,-1.3162,-1.314,-1.3168,-1.3174,-1.3176,-1.3134,-1.3133,-1.3132,-1.3132,0,0,-1.346,-1.3412,-1.3413,-1.3399,-1.3365,-1.3356,-1.335,-1.3328,-1.3322,-1.3301,-1.3294,-1.3275,-1.3257,-1.3243,-1.3221,-1.322,-1.324,-1.3201,-1.32,-1.3208,-1.3244,-1.3258,-1.3261,-1.3225,-1.3225,-1.3225,-1.3246,0,-1.3488,-1.3474,-1.3445,-1.344,-1.343,-1.3394,-1.3388,-1.3367,-1.3346,-1.3333,-1.331,-1.3296,-1.3275,-1.3266,-1.3263,-1.3238,-1.3246,-1.3236,-1.3217,-1.3216,-1.3223,-1.3265,-1.3279,-1.33,-1.3248,-1.3249,-1.3249,0,-1.3519,-1.35,-1.3494,-1.346,-1.3454,-1.345,-1.3426,-1.3415,-1.3389,-1.3374,-1.3358,-1.3333,-1.3323,-1.3303,-1.3289,-1.3282,-1.3273,-1.3259,-1.3259,-1.3255,-1.3234,-1.3261,-1.3306,-1.3308,-1.3253,-1.3252,-1.3252,0,-1.3564,-1.3537,-1.353,-1.3519,-1.3479,-1.3476,-1.3459,-1.3432,-1.3421,-1.3401,-1.3392,-1.3372,-1.336,-1.3344,-1.3314,-1.3302,-1.3302,-1.328,-1.3288,-1.3288,-1.3289,-1.3289,-1.3331,-1.3284,-1.3284,-1.3284,-1.3284,0,-1.3598,-1.3595,-1.3549,-1.3545,-1.3541,-1.3506,-1.3503,-1.3483,-1.3459,-1.3449,-1.3417,-1.3409,-1.3369,-1.3356,-1.3332,-1.3322,-1.3318,-1.3304,-1.3298,-1.3307,-1.3308,-1.3299,-1.3296,-1.3285,-1.3285,-1.3285,-1.3285,0,-1.3647,-1.3617,-1.3606,-1.3569,-1.3559,-1.3557,-1.3525,-1.3519,-1.3495,-1.3483,-1.3478,-1.3442,-1.3424,-1.3392,-1.3366,-1.3349,-1.3344,-1.3334,-1.3353,-1.3349,-1.3358,-1.3357,-1.3395,-1.3398,-1.3351,-1.3351,-1.3352,0,-1.367,-1.3667,-1.3629,-1.362,-1.3604,-1.3591,-1.3578,-1.3544,-1.3532,-1.3502,-1.3499,-1.3479,-1.346,-1.3434,-1.3404,-1.3383,-1.3371,-1.3386,-1.3368,-1.3376,-1.337,-1.337,-1.3368,-1.339,-1.3391,-1.3391,-1.3392,0,-1.3713,-1.3698,-1.3682,-1.366,-1.3646,-1.3627,-1.3607,-1.3601,-1.3562,-1.355,-1.3532,-1.3517,-1.349,-1.3469,-1.3444,-1.3426,-1.3402,-1.3398,-1.3398,-1.3406,-1.3417,-1.341,-1.3363,-1.3397,-1.3396,-1.3396,-1.3396,-1.3395,-1.3749,-1.3744,-1.3716,-1.3699,-1.368,-1.3661,-1.3652,-1.3628,-1.3612,-1.3586,-1.3567,-1.3549,-1.3522,-1.3485,-1.3468,-1.3453,-1.3442,-1.3443,-1.3443,-1.3444,-1.3446,-1.342,-1.3448,-1.3448,-1.3448,-1.3448,-1.3448,0,-1.3789,-1.377,-1.3754,-1.3726,-1.3711,-1.369,-1.3666,-1.3655,-1.364,-1.3617,-1.3599,-1.3577,-1.3557,-1.3526,-1.3503,-1.3496,-1.3485,-1.3491,-1.3491,-1.3487,-1.3458,-1.3459,-1.3501,-1.3501,-1.3501,-1.3501,-1.3501,-1.3501,-1.3809,-1.3799,-1.378,-1.376,-1.374,-1.3722,-1.371,-1.3692,-1.3673,-1.3649,-1.3632,-1.3612,-1.3584,-1.3559,-1.3539,-1.353,-1.3523,-1.3533,-1.352,-1.3494,-1.3489,-1.3484,-1.3485,-1.3532,-1.3532,-1.355,-1.355,-1.355]}]]